Wind_Speed
47 46 46 45 44 43 41 40 40 40 39 39 38 38 38 38 38 38 38 37 38 38 39 39 39 39 40 41 42 44 45 45 45 45 44 45 45 45 44 42 40 37 36 35 34 33 32 31 29 27 24 20 20 19 18 19 21 23 26 27 28 28 29 29 30 29 30 32 33 33 34 32 31 33 35 37 39 41 41 42 43 44 44 43 42
45 45 44 43 42 41 40 40 40 40 39 39 39 39 39 39 38 38 38 38 39 39 40 40 40 42 43 43 44 45 46 47 47 47 46 46 47 46 46 44 42 39 37 35 34 33 32 31 30 28 26 22 22 24 23 23 24 26 28 29 30 31 31 32 34 35 35 35 34 34 35 35 34 34 35 37 38 39 40 42 43 45 44 43 43
45 44 43 42 41 41 40 40 40 40 40 40 40 40 40 39 39 39 39 40 40 40 41 41 42 44 44 45 46 47 48 48 49 49 48 48 48 47 46 44 43 41 39 36 34 34 33 32 31 30 28 25 24 26 27 27 28 29 30 32 33 34 34 35 38 40 40 39 37 34 34 35 35 35 36 38 38 39 39 39 41 42 43 44 45
44 43 43 42 41 40 40 40 40 41 41 41 41 41 41 40 40 41 41 41 41 42 42 43 44 45 46 47 48 48 49 50 50 50 50 49 48 47 45 45 44 43 41 39 36 34 34 33 32 31 30 28 26 27 30 31 31 32 33 34 36 38 39 39 41 43 44 44 41 37 36 38 39 40 41 41 40 40 39 38 38 41 43 46 47
43 43 42 41 40 40 40 41 41 41 41 42 42 42 42 42 42 42 43 43 43 44 44 45 46 47 48 49 49 50 51 51 52 52 51 50 48 47 46 45 44 44 43 41 39 36 34 34 34 33 32 31 29 28 30 32 34 35 35 36 37 40 43 44 44 43 43 45 44 42 41 43 44 45 46 44 43 42 41 39 40 42 44 46 46
42 42 42 41 41 41 42 42 42 42 42 43 44 44 44 44 44 45 45 45 45 46 46 47 48 49 50 51 51 52 52 53 53 53 52 51 49 47 46 45 43 42 41 41 40 38 36 35 35 35 34 34 32 31 31 33 35 37 38 39 39 41 43 46 46 45 43 43 44 44 45 46 47 48 49 48 46 45 44 44 44 45 46 47 47
41 42 43 43 43 42 42 42 42 43 44 45 45 45 46 46 47 47 47 48 48 48 48 49 50 51 52 53 53 54 55 55 55 55 53 51 49 48 46 44 42 41 40 40 40 40 39 37 36 36 36 36 36 35 34 34 36 38 39 41 42 43 44 46 48 48 47 46 45 46 48 48 49 51 52 52 51 49 48 47 47 47 47 47 47
43 44 45 45 44 43 43 42 43 44 45 46 46 47 48 48 49 49 50 50 50 50 51 52 53 54 54 55 56 56 57 57 56 55 53 51 50 49 47 45 43 42 41 39 39 39 40 39 38 38 38 38 38 38 37 37 38 39 41 42 44 46 47 48 49 50 51 52 50 48 49 51 53 54 54 54 53 52 51 48 48 49 48 46 46
43 44 45 45 44 44 44 44 44 45 46 47 48 49 50 50 50 51 51 51 52 52 53 55 56 57 57 57 58 58 58 58 57 55 53 51 50 49 48 47 45 45 43 41 40 39 40 41 41 41 40 40 41 41 41 41 41 41 42 44 45 47 49 51 52 51 52 54 55 54 52 52 53 56 58 57 54 53 52 50 50 52 51 49 47
42 43 45 46 46 46 46 46 46 47 48 50 51 51 52 51 51 52 52 53 54 55 56 58 58 59 59 59 60 60 59 59 58 55 53 51 51 50 50 49 48 47 46 44 42 41 40 41 43 43 43 43 43 43 44 44 44 44 45 46 47 48 50 51 54 55 55 56 58 58 57 56 55 56 58 60 59 57 56 54 53 55 55 54 52
42 44 46 47 48 48 48 48 48 49 51 52 53 54 53 53 53 54 54 55 56 57 58 59 60 60 60 61 61 60 60 59 57 55 53 52 52 51 51 51 51 50 49 47 45 43 42 41 42 44 45 46 45 46 46 46 47 48 48 48 49 50 52 53 54 56 58 59 60 61 61 61 60 59 59 61 62 60 59 58 57 58 59 58 57
47 48 49 50 50 51 52 51 52 52 53 54 55 55 55 55 56 57 57 58 58 59 60 60 61 61 61 61 61 61 60 59 56 54 53 52 52 52 52 53 53 53 52 50 47 45 44 43 42 43 45 47 48 48 49 49 49 50 51 52 52 52 53 55 56 57 59 61 62 64 65 64 64 63 62 62 63 64 63 62 61 61 61 61 60
52 52 53 53 53 54 54 54 54 54 55 56 57 57 57 58 58 59 59 59 60 60 61 61 61 62 62 61 61 60 59 57 55 53 53 52 52 53 54 55 55 56 55 52 49 47 45 44 44 44 44 45 47 49 50 51 52 52 53 55 56 56 56 56 57 59 60 62 63 64 66 67 68 68 67 66 66 67 67 67 66 65 65 64 64
54 54 54 55 56 57 56 56 57 57 57 58 59 59 59 59 60 60 60 61 61 62 63 63 62 62 61 60 60 59 57 55 53 53 53 53 53 54 55 56 57 57 56 54 52 50 47 46 45 45 45 46 47 48 49 51 53 54 55 56 57 59 60 60 60 60 61 63 65 66 66 67 69 70 71 71 71 70 71 71 71 71 71 71 71
54 55 55 56 57 58 58 58 58 59 60 60 60 60 60 61 61 62 62 63 63 64 63 62 61 59 58 57 56 55 54 53 53 53 53 54 54 55 56 58 58 58 57 56 55 53 51 49 48 48 48 48 48 48 49 51 52 54 56 57 58 60 62 63 63 63 63 63 65 67 68 69 70 70 70 72 73 73 73 73 74 74 74 75 76
55 55 56 56 57 58 58 59 60 61 62 62 62 62 62 62 63 64 64 64 63 62 61 59 57 56 55 55 54 53 53 53 54 54 54 54 55 57 58 59 59 58 58 58 57 56 54 54 53 52 51 50 50 51 51 52 53 54 56 57 59 60 62 64 66 67 67 66 66 67 68 70 71 72 72 72 72 74 75 75 75 75 74 75 77
56 57 57 58 58 59 60 61 62 63 64 63 63 63 63 64 64 63 62 61 60 58 57 55 55 54 54 53 53 53 53 54 54 54 55 56 57 59 60 60 59 59 59 59 59 58 58 57 56 55 53 52 51 51 52 53 54 55 56 58 59 60 62 64 66 68 69 70 70 70 70 70 71 73 74 75 74 75 75 76 77 77 76 77 78
58 59 60 60 60 61 62 63 65 66 66 65 64 64 63 62 60 59 58 57 56 55 54 54 54 53 53 53 53 53 53 54 54 55 56 57 59 60 60 60 60 61 61 61 61 61 61 60 58 56 54 53 52 51 52 53 54 55 56 58 59 61 62 64 65 67 69 71 72 73 74 74 73 73 74 75 76 77 77 77 78 79 79 80 80
61 61 62 62 63 63 64 65 68 68 66 64 62 61 59 57 56 55 54 54 53 53 53 53 53 54 53 53 53 53 53 54 54 56 57 59 60 60 61 61 62 62 62 62 63 63 62 61 59 57 56 54 54 53 53 53 53 54 55 57 58 59 61 63 65 66 68 70 72 74 75 76 77 77 77 76 77 77 78 78 79 80 81 82 82
63 63 63 64 64 65 66 67 68 66 63 60 58 56 54 52 52 52 52 52 53 53 53 54 54 54 53 53 53 53 53 54 55 57 58 59 60 61 62 62 63 63 63 64 64 63 62 60 59 57 56 56 55 55 55 55 55 55 56 57 58 59 60 61 62 64 66 68 71 73 75 77 79 79 80 80 80 79 79 79 80 80 82 83 84
64 64 65 65 65 65 65 65 63 61 58 56 53 51 49 49 51 52 53 53 53 53 54 54 53 53 52 52 52 53 54 55 56 57 59 60 62 63 63 63 63 64 65 66 65 64 62 60 58 57 57 57 57 56 56 56 56 56 57 57 58 60 61 62 62 63 64 66 68 70 73 76 78 80 81 82 83 83 83 82 82 82 82 83 84
64 65 65 64 62 61 61 60 58 56 53 50 49 48 48 50 52 53 53 53 52 53 53 52 52 51 51 51 52 53 54 56 57 59 60 62 63 63 64 64 65 66 67 67 65 63 61 60 59 59 59 59 59 58 57 57 56 56 56 56 56 57 59 60 62 64 65 66 67 69 70 73 75 78 80 82 84 85 86 86 86 85 85 85 85
62 62 61 60 58 58 58 57 55 52 49 48 48 49 50 51 52 52 52 51 51 52 51 50 50 50 50 51 52 54 55 57 59 61 62 63 63 63 64 66 67 68 68 66 64 63 61 61 61 60 60 60 59 58 57 56 55 54 53 53 53 54 54 55 57 59 61 63 66 68 70 72 73 75 78 80 83 85 86 87 88 89 89 88 88
58 58 58 58 57 57 56 53 51 49 48 48 49 50 50 51 51 51 51 51 51 51 50 50 50 50 51 52 54 55 57 59 60 61 62 62 63 64 66 68 69 69 67 65 64 63 62 62 61 60 60 58 57 56 54 53 52 51 50 50 50 50 50 51 52 54 55 57 59 62 65 68 71 74 76 78 80 82 85 87 89 90 91 91 91
56 57 57 57 56 53 51 49 48 48 48 48 49 49 49 49 50 50 51 51 51 51 50 50 51 52 53 54 56 58 59 60 60 61 61 63 64 66 68 69 69 68 66 65 64 63 62 62 61 60 58 56 54 53 51 50 49 48 47 47 47 47 47 47 48 49 50 52 54 56 58 61 64 68 71 74 77 79 82 84 86 89 91 92 93
56 56 56 55 52 50 49 49 48 48 48 48 48 48 48 48 49 51 52 52 52 51 51 52 52 53 55 56 58 59 59 59 60 61 62 64 66 68 69 69 68 67 66 65 64 64 63 62 61 59 56 54 52 51 49 48 47 46 45 44 44 44 44 44 44 45 46 47 49 50 53 55 58 60 63 66 70 73 77 80 83 85 88 90 92
52 52 53 52 50 49 49 49 49 49 48 48 47 47 47 49 51 52 53 53 53 53 53 53 54 55 56 58 58 58 58 59 60 62 64 67 68 69 69 68 67 65 65 64 64 64 63 62 60 57 55 53 51 49 47 46 45 43 42 42 41 41 41 41 41 42 42 43 44 45 47 49 52 54 57 59 62 65 68 72 76 80 83 86 89
48 49 51 51 50 49 49 49 50 49 48 47 47 47 49 50 52 53 54 54 54 54 54 54 55 56 57 57 57 58 59 60 62 65 67 68 68 68 67 66 64 64 64 64 64 64 62 60 58 56 54 51 49 47 46 44 42 41 41 40 40 40 40 40 40 40 40 41 41 42 43 44 46 48 50 53 56 58 61 64 67 71 75 79 83
49 49 50 51 50 49 49 49 49 49 48 48 48 49 51 52 53 54 55 55 54 54 54 55 55 55 55 56 57 58 60 62 65 67 68 68 68 67 65 64 63 63 63 63 63 62 60 58 56 54 52 50 48 45 43 42 40 40 40 40 39 39 39 39 40 40 40 40 41 41 41 42 43 44 45 47 50 52 55 57 60 63 66 70 74
49 49 50 50 50 50 49 49 48 48 48 49 50 51 52 54 55 55 55 55 54 54 54 54 54 54 55 57 58 60 62 65 67 68 68 68 67 65 63 62 62 62 63 63 62 60 58 56 54 52 50 48 45 43 41 40 39 39 39 39 39 39 39 40 40 40 41 41 41 41 41 41 42 42 43 44 45 47 49 51 54 56 59 62 66
48 49 49 48 48 48 48 48 48 48 48 48 50 51 52 53 54 54 53 53 53 53 53 53 54 55 57 58 60 62 65 66 68 68 68 66 65 63 62 62 62 63 63 62 61 59 57 55 53 50 48 46 43 41 40 39 39 39 39 39 39 39 40 40 41 41 41 41 41 40 40 40 40 41 41 42 43 44 45 46 48 50 53 55 58
48 48 47 47 47 48 48 48 48 47 47 48 49 50 51 51 51 51 51 51 51 52 52 53 55 56 58 60 62 64 66 67 68 68 66 64 63 63 63 63 63 63 62 61 59 57 55 53 51 48 46 44 41 40 39 39 39 39 39 39 39 40 40 41 41 42 42 41 41 40 40 40 40 39 40 40 40 41 42 43 44 46 47 50 52
48 48 48 48 48 48 48 48 47 47 47 48 49 49 48 48 48 48 49 50 51 52 53 55 56 57 59 62 64 66 67 68 67 65 64 63 63 63 64 64 64 62 61 60 58 56 53 51 49 46 44 42 40 39 39 39 38 39 39 39 40 41 41 41 42 42 42 42 41 41 40 40 40 40 40 40 39 39 40 40 41 42 43 45 47
48 48 48 48 48 48 48 48 47 47 48 48 48 47 46 47 47 48 49 51 52 54 54 55 57 59 61 63 65 66 67 66 64 63 63 63 64 64 64 64 63 61 60 58 56 54 51 49 46 44 42 40 39 39 39 39 39 39 39 40 40 41 41 42 42 42 42 42 42 41 41 40 40 40 40 40 40 39 39 39 39 39 40 41 42
46 47 47 47 47 47 47 46 47 47 46 46 46 45 46 47 48 49 51 52 53 54 55 57 58 61 63 64 66 66 65 64 62 62 63 64 64 65 64 63 62 60 59 56 54 51 49 46 44 42 40 39 39 39 39 39 39 39 40 40 41 41 41 42 42 42 42 42 42 42 41 41 41 40 40 40 40 39 39 39 39 39 38 38 38
45 45 45 45 45 45 45 44 44 44 44 44 44 45 46 48 49 51 52 53 54 55 57 58 60 62 64 65 66 65 63 62 62 63 64 64 65 64 63 62 60 59 57 54 51 48 46 43 41 40 39 39 39 39 39 39 40 40 40 41 41 41 41 42 42 42 42 42 42 42 42 42 41 41 41 40 40 40 39 39 39 39 39 38 37
44 44 44 45 44 44 43 43 43 43 43 44 46 47 48 50 51 52 53 54 55 57 59 60 62 64 65 65 64 63 62 62 63 63 64 64 64 63 62 61 59 57 54 51 48 45 42 41 40 39 39 40 40 40 40 40 41 41 41 41 41 41 41 42 42 42 42 43 43 43 43 42 42 41 41 40 40 39 39 39 39 39 39 39 38
43 43 43 43 43 43 43 43 43 44 45 46 48 49 50 51 52 53 54 55 57 59 60 62 64 64 64 63 62 61 62 63 63 64 64 64 63 62 60 59 57 54 51 48 45 42 40 39 39 39 40 40 40 40 41 41 41 41 41 41 41 41 42 42 42 42 43 44 44 43 43 42 42 41 40 40 39 39 39 39 39 39 39 40 40
42 42 42 43 43 44 44 44 45 46 47 48 49 50 51 52 53 54 56 57 59 61 62 64 64 64 63 62 61 61 62 63 64 64 64 64 62 61 59 57 54 51 47 44 42 40 40 39 39 39 39 40 40 41 41 41 41 40 40 40 40 41 41 41 42 42 43 44 44 44 44 43 42 41 40 39 38 38 38 38 39 39 39 39 40
42 42 42 43 44 45 45 46 46 47 48 49 50 51 52 54 55 56 58 59 61 63 64 64 63 62 61 61 61 61 62 63 64 64 64 62 61 59 57 54 50 47 44 42 40 40 40 39 39 39 39 40 40 40 40 40 39 39 39 39 40 40 41 41 42 42 43 44 44 44 44 43 42 41 40 38 37 37 37 37 38 38 39 39 39
42 42 43 44 45 46 46 47 47 48 49 50 51 52 54 55 56 58 60 61 63 63 63 62 62 61 61 61 61 62 62 63 63 63 62 61 60 58 55 51 47 44 42 41 40 40 40 39 39 39 39 40 40 40 39 39 38 38 38 39 39 40 41 41 42 43 43 44 44 44 44 44 43 41 40 39 37 36 36 36 36 37 38 38 38
42 43 44 45 45 46 47 48 49 50 51 52 52 53 55 56 58 60 61 62 62 62 61 61 61 61 61 61 62 62 63 63 62 62 61 60 58 55 51 48 44 42 40 40 40 40 40 40 39 39 39 39 39 39 38 38 37 38 38 39 40 40 41 41 42 43 43 44 44 44 44 43 42 41 40 39 38 37 36 36 35 36 36 37 37
42 43 44 45 46 47 47 48 49 49 50 51 53 54 56 58 60 61 61 61 60 60 60 61 61 61 61 62 62 62 63 62 62 61 60 58 55 52 48 45 42 41 40 40 40 40 40 40 39 39 39 38 38 37 37 37 37 37 38 39 39 40 40 41 42 43 44 44 45 45 44 43 42 41 40 39 38 38 37 37 37 36 36 36 36
42 43 43 44 45 45 46 47 48 49 50 52 54 56 58 59 60 60 59 59 59 60 60 61 61 62 62 63 63 63 63 62 61 60 59 56 52 49 45 43 42 41 41 41 40 40 40 39 38 38 37 37 36 36 36 36 37 38 38 39 39 40 41 41 42 44 45 45 45 45 44 43 41 40 39 38 38 38 38 38 38 38 37 37 36
41 42 43 44 45 46 47 48 49 50 52 53 55 57 58 58 58 58 58 59 59 60 60 61 62 63 63 63 63 63 62 61 60 59 57 53 49 46 44 42 42 42 42 41 40 40 39 38 37 37 36 36 35 35 36 36 37 38 38 39 39 40 41 42 43 45 46 46 46 45 44 43 41 40 40 39 39 39 39 39 39 39 39 38 38
43 44 45 47 48 48 49 49 51 52 53 55 56 56 57 57 57 57 58 59 60 60 61 62 63 64 64 63 63 62 62 61 60 57 54 50 47 44 43 43 43 42 42 40 39 38 38 37 36 35 35 35 35 35 36 36 37 37 38 39 40 41 42 44 45 46 47 47 46 45 44 43 41 41 40 40 40 40 40 40 40 40 40 40 39
46 47 48 49 49 49 50 51 52 54 55 55 56 56 57 57 58 58 59 60 61 62 63 64 65 64 64 63 63 62 61 60 58 55 51 47 45 44 44 44 43 42 41 39 38 37 36 36 35 35 35 35 36 36 37 37 37 38 39 41 42 43 44 45 47 48 48 47 46 45 44 43 42 42 42 42 42 42 42 42 42 41 41 41 41
48 49 49 50 50 51 52 53 54 55 56 56 57 57 58 58 59 60 61 62 63 64 65 66 65 65 64 63 62 62 60 58 55 51 47 45 44 44 44 44 42 41 40 38 37 36 36 35 35 35 35 36 36 37 38 39 40 40 41 42 44 45 46 47 48 48 48 47 45 44 44 43 43 43 43 43 44 44 44 44 44 43 43 43 43
50 50 50 51 52 53 54 55 56 57 58 58 59 59 59 60 61 62 63 64 65 66 66 66 65 65 63 62 62 60 58 55 51 48 45 44 44 44 43 42 41 39 38 37 37 36 36 36 36 36 36 37 38 39 40 41 42 43 43 44 45 46 47 48 48 48 47 45 44 44 44 44 44 45 45 45 45 45 45 45 46 45 45 45 45
52 52 52 53 54 55 56 57 58 59 59 60 61 61 61 62 63 64 65 66 66 67 67 66 65 64 63 62 60 58 55 51 47 45 44 44 44 43 42 40 39 38 37 37 36 36 37 37 37 37 37 38 39 40 41 43 44 44 45 46 46 47 48 48 47 46 45 45 45 44 44 45 45 46 47 47 47 47 47 47 48 48 48 47 47
54 54 55 56 57 58 59 59 60 61 61 62 63 63 64 64 65 66 67 67 67 67 67 66 65 63 62 61 58 55 51 47 44 44 44 44 43 42 40 39 38 37 37 36 36 36 37 37 38 39 40 40 41 42 43 44 46 46 47 47 48 48 48 47 46 45 45 45 46 46 46 46 46 46 47 48 49 49 50 50 50 50 49 49 49
Wind_Direction
271 274 275 276 277 277 279 280 281 283 284 284 285 286 287 288 290 292 294 296 297 298 299 299 300 301 303 304 305 305 306 307 307 305 303 302 302 302 302 302 300 298 295 292 290 286 284 284 286 291 294 277 254 249 245 233 224 218 215 218 222 226 225 223 221 219 226 236 237 233 234 234 236 239 238 237 236 233 233 234 236 239 241 243 243
271 273 274 274 275 277 278 280 281 282 283 284 285 285 286 288 290 293 295 296 297 297 297 298 299 301 303 305 305 306 306 307 307 305 303 302 301 301 301 300 299 296 293 290 288 285 281 279 279 282 287 279 258 246 241 234 229 225 223 222 223 226 228 225 221 219 222 233 238 236 236 236 237 238 236 236 235 234 234 235 236 239 240 240 241
271 272 273 273 275 277 278 279 281 282 283 283 284 286 287 289 291 292 294 295 296 296 296 297 299 302 304 305 305 306 306 307 306 305 304 302 301 301 300 299 298 295 293 290 286 283 279 276 274 274 278 278 265 250 243 239 235 233 233 230 226 226 228 226 225 224 224 230 236 239 241 242 241 241 238 236 236 235 236 237 238 240 240 240 240
270 271 273 274 275 277 278 279 280 281 283 284 285 286 287 289 290 291 293 294 295 295 296 298 300 301 303 304 305 306 306 306 306 305 303 302 300 300 299 299 297 294 292 289 286 282 278 275 272 270 270 272 268 257 248 244 242 240 240 237 232 228 228 228 228 230 231 233 234 236 239 242 243 243 241 239 238 237 238 240 240 240 240 240 240
270 271 272 273 275 277 279 280 281 282 283 284 285 286 287 288 289 291 292 293 293 294 295 297 299 301 302 303 305 306 306 306 305 304 303 301 300 300 300 300 298 295 290 287 285 282 278 275 272 269 266 266 266 262 253 248 245 245 244 242 238 233 231 230 231 233 236 239 239 235 234 237 241 242 242 241 240 239 240 241 241 241 240 240 242
270 271 273 274 276 278 280 281 282 283 283 283 284 285 287 288 289 291 292 292 292 293 295 297 299 300 301 303 304 305 305 304 304 304 303 302 301 301 302 302 300 298 292 286 283 280 277 274 271 269 266 264 263 262 258 252 247 245 245 244 242 238 235 234 235 234 235 239 243 240 235 234 237 239 241 242 242 241 242 244 244 244 244 244 245
270 272 274 275 277 278 280 281 282 282 282 283 284 286 287 289 290 291 291 291 291 292 294 297 299 300 301 302 303 304 304 303 304 304 303 302 302 302 303 302 302 302 298 290 283 279 277 274 271 269 267 264 262 260 259 256 252 247 244 244 244 242 239 237 237 237 234 234 239 242 240 237 236 238 240 242 243 244 246 248 247 246 246 246 246
272 273 274 275 277 279 280 281 281 282 282 283 285 286 288 289 290 291 291 291 292 292 293 296 298 299 300 301 302 303 303 303 304 304 303 301 301 301 302 303 302 303 302 296 288 282 278 274 272 269 267 266 263 260 258 257 255 252 247 244 242 242 242 241 239 238 236 233 234 237 239 239 239 240 242 244 246 247 247 247 246 246 246 245 245
275 276 276 277 278 279 280 280 281 281 282 283 285 286 287 288 290 291 291 292 292 292 294 296 297 298 299 300 302 302 303 303 303 303 301 300 300 301 302 302 302 302 302 298 293 287 281 277 273 270 268 266 264 262 260 257 255 254 252 249 245 242 242 242 242 240 237 235 234 235 237 238 239 241 242 245 247 249 248 245 244 245 245 245 245
274 274 276 277 278 279 280 280 281 281 282 283 284 285 286 287 289 290 291 292 293 293 294 296 297 298 299 300 301 302 302 302 302 301 300 299 299 300 301 302 303 303 302 299 295 290 285 280 275 272 269 267 265 263 262 260 257 254 253 252 250 247 243 241 241 241 240 238 237 237 237 238 239 240 241 242 244 247 247 245 242 242 243 245 247
268 269 271 274 277 278 280 281 281 282 282 283 283 284 286 288 289 290 292 293 293 294 295 296 297 298 299 299 300 301 301 301 301 300 299 299 299 300 301 302 303 303 303 300 297 292 287 283 278 273 270 268 266 264 262 261 259 257 254 252 251 250 248 245 243 241 241 240 239 240 240 239 239 239 239 239 240 241 242 243 242 241 242 245 247
267 269 271 274 276 277 279 280 281 282 282 282 283 285 286 288 290 291 292 293 294 294 295 296 297 297 298 299 299 299 300 300 299 298 298 298 299 300 302 303 304 305 304 302 299 294 290 286 282 276 272 269 267 265 263 261 260 258 256 254 252 251 250 249 247 244 243 242 241 241 242 242 241 240 239 239 238 237 237 239 240 240 241 242 244
270 272 274 275 276 277 278 280 281 282 282 282 284 285 287 289 291 291 292 293 293 294 295 295 296 296 297 297 298 298 298 298 297 297 297 298 299 300 302 303 305 306 305 304 302 298 293 289 285 281 276 271 269 267 265 262 260 259 257 256 254 252 250 249 249 248 247 245 243 242 242 243 243 242 241 240 240 238 238 238 239 239 240 241 242
271 273 274 275 277 278 279 280 281 282 283 284 285 286 288 290 290 291 292 292 293 293 294 294 295 295 296 296 297 297 297 296 296 297 297 299 300 301 302 304 305 305 304 304 303 301 296 292 288 285 280 276 272 269 267 265 262 260 258 256 255 254 252 251 250 249 248 248 247 245 244 243 243 243 243 243 242 241 241 240 241 241 243 243 244
271 272 274 275 277 278 280 281 282 283 283 284 285 287 288 289 290 291 291 292 292 292 293 293 294 295 295 295 295 295 295 296 296 297 298 299 300 301 302 303 304 304 303 303 303 302 299 296 293 289 285 280 276 272 268 266 264 263 261 259 256 254 253 252 251 250 249 248 248 248 247 246 244 244 244 244 244 244 243 242 242 243 244 245 246
270 271 273 274 275 277 279 280 281 282 282 283 285 286 288 289 290 291 291 291 292 292 292 293 294 294 295 295 294 295 295 296 297 298 299 300 300 301 302 303 303 303 302 302 302 301 300 298 296 293 290 285 280 276 272 268 266 263 262 260 259 257 255 253 252 251 251 250 249 248 248 248 247 246 245 244 244 244 244 244 243 242 243 245 247
268 270 272 274 275 277 278 279 280 281 282 283 285 287 289 290 290 291 291 291 291 291 292 293 294 294 294 294 294 294 295 296 297 298 299 300 301 302 302 302 302 302 302 302 302 302 301 300 298 296 293 288 284 280 276 273 269 266 263 261 259 258 257 255 254 252 252 251 250 249 248 248 248 248 247 246 245 245 244 244 244 243 243 243 245
269 271 272 274 276 277 279 280 280 280 282 285 287 289 289 290 290 290 290 290 290 291 292 293 293 292 292 293 293 294 295 296 298 299 300 301 301 302 302 302 302 302 303 303 303 303 303 302 300 298 295 291 288 284 281 277 274 271 268 265 262 260 258 257 256 254 253 252 251 250 249 249 248 248 248 247 247 246 245 245 245 244 244 243 243
270 271 273 275 277 278 279 280 280 282 286 288 289 289 289 290 289 289 289 289 290 291 291 291 291 291 292 293 294 295 296 298 299 300 300 301 301 301 302 302 302 303 303 303 303 304 303 302 300 298 296 293 290 287 285 282 279 276 274 271 268 265 262 259 257 256 254 253 252 251 250 249 249 249 248 248 248 247 246 246 245 245 245 244 244
270 272 274 275 276 278 279 280 282 285 288 289 289 289 290 289 289 288 288 289 289 290 290 290 290 291 292 294 295 296 298 299 300 300 300 300 301 301 301 302 302 302 303 303 304 304 303 301 299 297 295 293 291 289 287 284 282 279 277 274 272 270 267 265 262 259 257 255 253 252 251 250 249 249 248 248 248 248 247 247 246 246 245 245 245
271 272 273 274 276 278 279 281 283 286 287 287 288 289 289 288 287 287 288 288 289 290 290 290 291 293 294 296 297 298 299 300 300 300 300 300 301 301 302 302 302 303 304 304 304 304 302 301 300 298 297 295 294 292 290 287 284 281 279 276 274 271 270 268 266 264 261 259 256 254 252 251 250 249 248 248 248 248 248 247 247 247 246 246 246
271 272 273 274 276 277 279 281 283 284 285 286 287 287 287 286 286 287 288 289 290 290 290 292 294 295 296 297 298 299 299 299 300 300 300 300 301 301 302 302 303 304 304 305 305 304 303 302 301 301 299 298 297 295 293 290 288 285 282 279 276 273 271 268 267 265 264 262 260 258 255 253 252 250 249 248 248 247 247 247 247 247 247 247 246
270 272 273 274 275 276 277 279 282 283 284 285 285 285 285 286 287 288 289 290 290 291 293 295 296 297 298 298 298 299 299 299 300 300 300 300 301 301 302 303 304 305 305 305 305 304 304 303 302 302 301 299 298 296 294 292 290 288 285 283 280 277 274 272 269 266 264 262 261 260 258 257 255 253 251 250 249 247 247 247 246 247 247 247 246
270 272 273 274 275 277 279 282 283 284 285 285 285 286 286 287 288 289 290 291 292 294 296 297 298 298 299 299 299 299 299 300 300 300 300 300 301 302 303 304 305 305 305 305 305 305 304 303 303 302 301 300 299 297 295 294 292 290 287 285 283 280 278 275 273 270 268 265 263 261 259 258 257 256 254 253 251 250 248 247 246 246 246 246 246
269 271 272 274 277 279 281 283 284 284 285 285 285 286 287 289 290 290 291 292 294 295 297 298 298 299 299 299 299 299 300 300 300 300 300 300 301 302 304 305 305 306 306 306 305 305 305 304 304 304 303 302 301 300 298 296 295 293 290 288 286 283 281 279 276 274 271 269 267 265 263 260 259 257 256 254 253 252 251 249 248 247 246 245 245
270 272 273 275 278 280 280 281 282 283 283 283 284 285 287 289 289 290 291 293 294 296 297 298 299 299 299 299 299 299 299 299 299 299 300 301 302 303 305 305 306 306 306 306 306 306 306 306 306 306 305 304 303 302 300 298 296 294 292 290 288 286 284 282 280 278 275 273 270 268 266 264 263 261 258 256 255 254 253 252 251 249 248 246 245
271 273 275 277 278 279 280 281 282 282 282 283 284 285 286 288 289 290 291 293 294 296 298 299 299 299 298 298 298 298 298 299 299 300 301 302 303 304 305 306 306 306 306 307 307 308 308 308 308 307 306 305 304 302 301 299 297 296 294 293 291 290 288 287 285 283 280 278 275 272 269 267 266 264 262 260 258 256 254 253 252 251 250 249 248
270 272 274 277 278 279 280 281 282 282 283 283 284 285 287 288 289 290 291 293 295 296 297 298 298 297 297 297 298 298 298 299 299 300 301 303 304 305 305 305 306 306 307 308 308 309 309 308 308 307 306 305 304 303 301 300 299 298 298 297 297 296 295 294 292 290 288 286 283 280 276 273 270 268 266 264 262 260 258 256 254 253 251 251 250
270 271 273 275 277 278 279 280 282 283 284 285 286 287 288 289 289 290 291 293 294 296 296 296 296 296 296 296 297 297 298 299 300 301 302 304 304 305 305 305 306 307 308 309 309 309 308 308 308 307 306 305 304 302 301 301 300 300 300 299 299 299 298 297 296 294 293 291 289 286 283 280 277 274 271 269 266 264 262 260 258 256 254 252 251
271 273 274 276 279 281 282 283 284 284 285 286 287 287 287 287 287 289 290 292 293 294 295 295 295 295 296 296 297 298 299 300 301 302 303 304 304 305 305 306 308 309 309 309 309 309 308 308 307 306 305 304 303 302 301 300 300 301 301 300 300 300 300 300 300 298 297 295 293 291 288 286 283 280 277 274 272 269 266 264 261 259 257 255 254
273 275 276 278 280 281 281 282 282 282 283 283 283 283 283 284 286 288 289 291 292 293 294 294 294 295 296 297 298 299 300 301 302 303 304 304 305 306 307 308 310 310 310 310 309 309 308 308 307 306 305 303 302 301 301 301 301 302 302 302 303 303 303 303 303 302 301 299 297 295 293 290 287 285 282 280 277 274 272 269 266 263 260 258 256
273 275 276 277 277 277 277 277 278 279 280 280 280 281 282 284 286 288 289 291 291 292 292 293 294 295 297 298 298 300 301 302 303 304 305 305 306 307 309 310 311 311 311 310 309 309 308 308 307 305 304 303 302 302 302 302 303 303 304 304 305 305 305 305 305 305 303 302 301 300 298 296 293 291 288 285 282 279 277 273 270 267 264 262 259
273 274 274 274 274 274 274 274 275 277 278 279 280 281 282 284 286 288 289 290 290 291 292 293 295 296 297 298 299 301 302 303 304 305 305 307 308 309 310 311 312 311 311 310 310 309 308 307 306 305 304 303 302 303 303 304 304 305 306 306 306 306 307 307 307 307 306 305 304 303 302 301 299 297 295 292 289 286 283 280 276 272 269 265 263
274 273 273 273 272 272 272 273 274 275 277 278 279 281 283 284 286 287 287 288 289 290 292 293 295 296 297 299 300 302 303 304 305 306 307 308 309 310 311 312 312 311 311 310 310 309 308 307 306 305 304 304 304 304 305 305 306 306 307 307 307 308 308 308 308 307 307 306 306 305 304 303 302 300 299 297 295 292 289 286 283 279 275 271 267
274 272 271 271 271 271 271 271 273 274 276 278 279 281 283 284 285 285 286 287 289 291 292 294 295 297 299 300 302 303 304 305 306 307 308 309 310 311 311 312 312 311 311 311 310 309 308 307 306 305 304 305 305 305 306 306 306 307 307 307 308 308 308 308 308 308 308 307 307 307 306 306 305 304 302 301 299 297 295 292 289 286 282 278 273
271 270 269 268 269 269 270 271 273 275 277 278 280 281 282 283 284 284 286 287 289 291 292 294 296 298 300 302 303 304 305 306 307 307 308 309 310 311 312 312 312 312 311 311 310 309 307 306 306 305 305 306 306 306 306 306 307 307 307 307 308 308 308 309 309 309 309 309 309 309 309 309 308 307 306 305 303 301 299 298 296 293 290 286 282
268 267 267 268 269 270 272 274 275 277 278 279 280 281 281 282 283 284 286 287 289 291 293 295 298 300 302 303 304 305 305 306 307 308 308 309 311 312 312 312 312 312 311 310 309 308 307 306 306 306 306 306 306 306 306 307 307 307 308 308 308 308 309 310 310 310 310 310 311 311 311 310 310 309 308 307 305 304 302 301 299 298 296 294 291
267 268 269 270 271 273 274 275 276 277 277 278 279 279 280 281 283 284 286 288 290 293 295 298 300 302 302 303 304 305 306 306 307 308 309 310 311 312 312 312 312 311 310 309 308 307 306 306 306 306 306 306 306 306 306 307 307 307 307 307 308 309 310 312 312 312 311 311 311 311 311 311 311 311 310 309 307 306 304 303 301 300 299 297 296
269 269 270 271 272 273 274 275 275 275 276 277 278 279 280 281 283 284 287 289 292 295 298 300 301 302 302 303 304 305 306 306 307 308 310 311 311 311 312 312 312 311 309 307 306 306 306 306 305 305 305 306 306 306 306 306 306 306 306 307 308 310 311 312 312 311 311 311 311 312 312 312 312 312 311 310 309 307 306 305 303 302 301 300 298
269 269 270 270 271 272 272 273 274 274 275 276 277 279 280 282 284 286 289 292 295 298 300 301 301 301 302 303 304 305 306 307 308 309 310 311 311 311 312 312 311 310 308 307 306 306 306 306 306 306 306 306 306 306 306 305 306 306 306 307 309 310 312 312 311 311 311 312 312 313 313 314 314 314 313 311 310 308 306 305 303 302 301 300 299
267 267 267 267 268 269 270 271 272 273 274 276 278 279 281 284 287 290 293 296 298 299 300 300 300 301 302 303 304 305 306 307 308 309 310 311 311 311 312 311 310 308 307 307 307 307 307 307 307 306 306 306 306 306 306 306 306 306 307 309 310 311 312 311 311 311 312 313 314 314 315 315 315 315 313 312 310 308 306 304 303 302 301 300 299
264 265 265 266 266 267 268 269 271 273 275 277 280 282 285 289 292 294 296 298 298 299 299 299 300 301 302 303 304 305 307 308 309 310 310 311 311 311 311 310 309 307 307 307 307 307 307 307 307 307 306 306 306 306 306 306 306 307 309 310 311 311 311 310 311 312 313 314 315 316 316 316 316 315 314 313 311 309 307 305 304 302 302 301 300
262 263 263 264 265 266 268 270 272 275 278 281 284 287 290 292 294 296 297 297 298 298 298 299 301 302 303 304 305 307 308 309 309 309 310 311 311 310 310 309 308 307 307 307 307 307 307 307 307 306 306 306 305 306 306 306 307 308 310 310 310 310 309 310 311 313 314 316 316 317 317 316 316 315 314 313 312 310 309 308 306 305 304 303 302
261 262 264 266 268 269 271 274 276 279 282 285 288 291 292 294 295 296 296 296 297 297 298 300 302 303 304 305 306 308 308 309 309 309 310 310 310 309 308 308 307 307 307 307 307 307 307 307 307 307 306 306 306 306 306 307 308 309 309 309 309 309 310 311 313 314 315 316 317 317 317 316 316 315 315 314 313 312 311 310 309 308 307 306 304
266 267 269 271 272 273 275 277 280 282 285 288 290 292 293 295 295 295 295 296 297 298 300 301 302 303 304 306 307 308 308 308 309 310 310 310 309 308 307 307 307 307 307 307 307 307 307 307 307 307 307 307 306 307 307 308 308 308 308 307 308 309 310 312 313 315 316 317 317 317 317 316 316 316 315 314 314 313 312 312 311 311 310 309 308
268 269 270 271 272 274 276 279 282 285 288 290 292 293 294 294 295 295 296 297 298 299 301 302 303 304 305 306 307 307 308 308 309 309 309 309 308 307 307 307 307 307 307 307 307 308 308 308 308 308 308 307 307 307 308 307 307 307 307 308 309 310 312 313 314 315 316 317 317 317 317 317 316 316 316 316 315 315 314 313 313 312 312 311 310
267 268 269 271 273 276 279 282 285 287 290 291 293 293 294 294 295 296 297 298 299 300 301 302 303 305 306 306 306 307 308 308 309 308 308 307 307 307 307 307 306 306 307 307 308 308 308 308 308 308 308 308 308 307 307 307 307 308 309 309 310 311 313 314 315 316 316 317 318 318 318 317 317 317 317 317 317 317 316 315 315 314 313 313 312
266 268 270 272 275 278 281 284 287 289 290 292 293 293 294 295 296 297 298 299 299 300 300 302 304 305 305 306 306 307 307 307 307 307 306 305 306 306 306 306 306 307 307 308 308 308 308 308 308 308 308 308 308 308 308 308 309 309 309 309 310 311 312 314 315 316 317 317 318 318 318 318 318 318 318 318 318 318 318 317 316 316 315 314 314
266 268 271 274 277 280 283 285 287 289 290 291 292 293 294 295 296 297 297 298 298 299 301 302 304 304 304 305 306 306 306 306 305 304 304 304 305 305 305 305 306 307 307 308 308 308 308 308 307 307 307 307 307 307 307 307 307 307 307 308 309 310 312 314 315 316 316 317 318 318 318 318 318 318 318 318 318 318 318 318 317 317 317 316 316
267 269 272 275 278 281 283 285 287 289 290 291 292 293 294 295 296 296 297 297 298 299 301 302 303 303 304 304 304 304 304 303 303 303 303 304 304 304 305 305 306 306 306 306 306 306 306 306 306 306 306 306 306 305 305 305 305 306 307 309 310 311 312 313 314 315 315 316 317 318 318 318 318 319 319 319 319 319 319 319 318 318 318 317 317
267 269 272 275 278 281 283 285 287 288 290 291 292 293 294 295 295 296 296 297 298 299 300 301 301 302 303 303 303 302 302 301 301 302 302 303 303 303 304 305 305 305 304 304 304 304 304 305 305 305 305 305 305 305 305 306 306 307 308 309 310 311 311 312 313 314 315 316 317 317 318 318 318 318 319 319 319 319 319 319 319 319 318 318 318
Height
10678 10678 10677 10676 10676 10675 10675 10674 10673 10673 10672 10671 10670 10669 10668 10667 10666 10665 10664 10663 10662 10660 10659 10658 10656 10654 10653 10651 10650 10648 10646 10644 10642 10640 10639 10637 10635 10633 10632 10630 10628 10627 10625 10623 10622 10621 10621 10620 10619 10619 10618 10617 10617 10616 10615 10615 10614 10614 10615 10615 10616 10616 10617 10618 10619 10621 10622 10622 10623 10625 10626 10628 10630 10631 10631 10632 10633 10634 10635 10637 10639 10640 10641 10642 10643
10673 10673 10672 10672 10672 10671 10671 10670 10669 10668 10667 10667 10666 10665 10664 10663 10662 10661 10659 10658 10657 10656 10654 10653 10652 10650 10648 10647 10645 10643 10641 10640 10638 10636 10634 10632 10630 10628 10626 10624 10623 10621 10620 10619 10617 10616 10616 10616 10615 10614 10614 10614 10613 10613 10613 10612 10612 10612 10612 10612 10613 10613 10614 10615 10616 10617 10618 10618 10619 10620 10621 10623 10624 10625 10626 10626 10627 10628 10630 10632 10633 10635 10636 10637 10638
10668 10668 10668 10668 10667 10667 10667 10666 10665 10664 10663 10662 10661 10660 10659 10658 10657 10656 10655 10654 10653 10651 10650 10649 10647 10645 10644 10642 10641 10639 10637 10635 10633 10631 10629 10627 10625 10623 10621 10619 10617 10615 10614 10613 10612 10611 10610 10610 10610 10610 10610 10609 10609 10609 10609 10609 10608 10609 10609 10609 10609 10609 10610 10611 10612 10612 10613 10613 10614 10616 10617 10618 10619 10620 10620 10621 10622 10623 10625 10627 10628 10630 10631 10632 10633
10664 10663 10663 10663 10663 10662 10662 10662 10661 10660 10659 10658 10656 10655 10654 10653 10653 10652 10651 10650 10648 10647 10645 10644 10643 10641 10640 10638 10636 10634 10632 10630 10628 10626 10624 10622 10620 10618 10615 10613 10611 10609 10608 10607 10606 10606 10605 10605 10605 10605 10605 10605 10604 10604 10604 10604 10604 10604 10604 10604 10605 10606 10606 10606 10607 10607 10608 10609 10610 10612 10613 10614 10614 10614 10615 10616 10617 10619 10620 10621 10623 10625 10626 10627 10628
10659 10659 10659 10658 10658 10658 10658 10657 10656 10655 10654 10653 10651 10650 10650 10649 10648 10647 10646 10645 10644 10642 10641 10640 10638 10637 10635 10633 10631 10629 10627 10625 10623 10620 10618 10616 10614 10612 10610 10608 10606 10604 10602 10601 10600 10600 10599 10599 10599 10599 10600 10599 10599 10599 10599 10599 10599 10599 10599 10599 10600 10601 10601 10602 10602 10603 10604 10604 10605 10607 10608 10609 10609 10609 10610 10611 10613 10614 10615 10616 10618 10619 10620 10621 10623
10655 10655 10654 10654 10654 10654 10654 10653 10652 10651 10650 10648 10647 10646 10645 10644 10644 10643 10642 10640 10639 10638 10636 10635 10633 10632 10630 10628 10626 10624 10622 10620 10617 10615 10612 10610 10608 10606 10604 10602 10600 10598 10596 10595 10594 10594 10593 10593 10593 10593 10593 10594 10594 10593 10593 10593 10593 10594 10594 10594 10594 10595 10595 10596 10597 10598 10599 10599 10599 10601 10602 10604 10604 10604 10604 10606 10608 10609 10610 10611 10612 10613 10614 10615 10617
10651 10650 10650 10650 10650 10650 10649 10649 10648 10647 10645 10644 10643 10642 10641 10640 10639 10638 10637 10635 10634 10633 10631 10630 10629 10627 10625 10623 10621 10618 10616 10614 10612 10609 10606 10604 10602 10600 10598 10596 10594 10592 10590 10589 10588 10587 10587 10587 10586 10586 10587 10587 10587 10587 10587 10587 10587 10587 10587 10587 10588 10589 10589 10590 10591 10592 10593 10593 10593 10594 10595 10597 10598 10598 10599 10600 10601 10603 10604 10605 10607 10607 10608 10609 10610
10646 10646 10645 10646 10646 10646 10645 10645 10644 10643 10642 10640 10639 10638 10636 10635 10634 10633 10632 10630 10629 10628 10626 10625 10623 10621 10619 10617 10615 10612 10610 10608 10605 10603 10600 10598 10596 10594 10592 10590 10588 10587 10585 10583 10582 10581 10580 10580 10580 10580 10579 10579 10580 10580 10580 10580 10580 10580 10580 10581 10581 10582 10582 10583 10584 10585 10586 10586 10587 10587 10588 10590 10591 10591 10592 10593 10595 10596 10598 10599 10600 10601 10601 10603 10605
10641 10641 10641 10641 10642 10641 10641 10641 10640 10639 10637 10636 10634 10633 10632 10631 10630 10628 10627 10625 10624 10622 10621 10620 10617 10615 10613 10611 10609 10606 10604 10601 10599 10596 10594 10592 10590 10588 10586 10585 10583 10581 10579 10577 10576 10575 10574 10573 10573 10572 10572 10572 10572 10572 10573 10573 10573 10573 10573 10573 10574 10574 10575 10576 10576 10577 10578 10579 10579 10580 10581 10583 10584 10584 10585 10586 10587 10589 10590 10592 10594 10594 10595 10597 10598
10637 10637 10637 10637 10637 10636 10636 10636 10636 10635 10633 10631 10630 10628 10627 10626 10624 10623 10621 10620 10618 10617 10615 10613 10611 10609 10607 10605 10602 10600 10597 10595 10592 10590 10587 10585 10583 10582 10580 10578 10576 10574 10573 10571 10570 10569 10568 10567 10566 10565 10565 10565 10565 10565 10565 10565 10565 10565 10565 10565 10565 10566 10567 10568 10568 10569 10570 10571 10572 10573 10573 10575 10576 10577 10578 10578 10580 10581 10582 10584 10586 10587 10588 10590 10591
10633 10632 10632 10632 10632 10632 10632 10632 10631 10630 10628 10626 10624 10623 10622 10621 10619 10617 10616 10614 10613 10611 10609 10607 10605 10602 10600 10598 10595 10593 10591 10588 10586 10583 10581 10579 10577 10575 10573 10571 10569 10567 10566 10564 10563 10561 10560 10560 10559 10558 10557 10557 10557 10557 10557 10556 10556 10556 10557 10557 10557 10557 10558 10559 10560 10561 10561 10562 10563 10564 10565 10566 10568 10569 10570 10571 10573 10574 10575 10576 10578 10580 10581 10582 10583
10628 10627 10627 10627 10627 10627 10627 10627 10626 10624 10622 10620 10619 10617 10616 10615 10614 10612 10610 10609 10607 10605 10603 10600 10598 10596 10593 10591 10589 10586 10584 10582 10579 10577 10575 10573 10571 10568 10566 10564 10561 10559 10558 10556 10555 10554 10552 10552 10551 10550 10549 10549 10548 10548 10548 10548 10548 10548 10548 10548 10548 10549 10549 10550 10550 10551 10552 10553 10554 10555 10556 10557 10559 10560 10562 10563 10564 10566 10567 10568 10570 10571 10572 10573 10574
10622 10622 10622 10622 10622 10621 10621 10621 10620 10619 10617 10615 10613 10612 10611 10610 10608 10606 10604 10602 10600 10598 10596 10594 10591 10589 10587 10584 10582 10579 10577 10575 10573 10571 10569 10567 10564 10562 10559 10556 10554 10552 10550 10548 10547 10545 10544 10543 10543 10542 10541 10540 10540 10539 10539 10539 10539 10539 10538 10538 10539 10539 10540 10540 10541 10542 10543 10543 10545 10546 10547 10548 10549 10551 10552 10553 10555 10556 10558 10559 10561 10562 10563 10564 10565
10618 10617 10617 10616 10616 10616 10615 10615 10614 10612 10610 10609 10607 10606 10605 10604 10602 10600 10598 10596 10593 10591 10589 10587 10584 10582 10579 10577 10575 10572 10570 10568 10566 10564 10562 10560 10558 10555 10552 10549 10547 10544 10542 10540 10539 10537 10536 10535 10534 10533 10532 10532 10531 10530 10530 10529 10529 10529 10529 10529 10529 10529 10529 10530 10531 10532 10533 10533 10534 10535 10536 10537 10539 10540 10542 10543 10544 10546 10548 10549 10551 10552 10553 10554 10555
10613 10612 10612 10612 10611 10610 10609 10608 10607 10606 10604 10602 10602 10600 10599 10598 10596 10593 10591 10589 10586 10584 10581 10579 10577 10574 10572 10570 10568 10566 10564 10562 10560 10558 10556 10553 10551 10548 10545 10543 10540 10537 10535 10533 10531 10529 10528 10526 10525 10524 10523 10522 10521 10521 10520 10520 10519 10519 10519 10519 10519 10519 10519 10520 10520 10521 10522 10523 10524 10524 10525 10526 10528 10529 10531 10532 10534 10535 10537 10539 10540 10541 10543 10543 10544
10608 10607 10607 10606 10605 10604 10603 10602 10601 10599 10597 10597 10596 10595 10593 10592 10589 10587 10584 10581 10579 10576 10574 10572 10570 10567 10565 10563 10561 10559 10557 10555 10553 10551 10548 10546 10543 10541 10538 10536 10533 10530 10528 10525 10523 10521 10519 10518 10516 10515 10513 10512 10511 10510 10510 10509 10509 10509 10508 10508 10508 10508 10509 10509 10509 10510 10511 10512 10513 10513 10514 10515 10516 10518 10519 10521 10522 10524 10525 10527 10529 10530 10532 10532 10533
10602 10601 10601 10600 10599 10598 10597 10596 10594 10592 10591 10591 10590 10589 10587 10585 10582 10579 10576 10574 10571 10569 10567 10565 10563 10561 10559 10557 10555 10553 10551 10549 10547 10544 10541 10539 10536 10534 10531 10528 10525 10523 10520 10518 10515 10513 10511 10508 10507 10505 10504 10502 10501 10500 10499 10498 10498 10498 10497 10497 10497 10497 10497 10498 10498 10498 10499 10500 10501 10502 10503 10503 10504 10506 10507 10509 10511 10512 10514 10515 10516 10518 10520 10521 10522
10596 10595 10594 10594 10593 10592 10591 10590 10587 10586 10586 10586 10585 10583 10580 10578 10575 10572 10569 10567 10564 10562 10560 10558 10556 10554 10552 10551 10549 10547 10545 10542 10540 10537 10535 10532 10529 10526 10523 10520 10518 10515 10512 10509 10507 10504 10501 10499 10497 10495 10493 10492 10491 10490 10489 10488 10487 10486 10486 10486 10485 10485 10486 10486 10486 10486 10487 10488 10489 10490 10491 10491 10492 10494 10495 10496 10498 10499 10501 10503 10504 10506 10507 10509 10511
10589 10588 10588 10587 10586 10585 10585 10582 10580 10580 10580 10580 10578 10576 10573 10571 10568 10565 10562 10560 10558 10556 10554 10552 10550 10548 10546 10545 10543 10541 10538 10536 10533 10531 10528 10525 10522 10519 10516 10513 10510 10507 10504 10502 10499 10496 10493 10490 10487 10485 10483 10481 10480 10479 10478 10478 10477 10476 10475 10474 10473 10473 10473 10473 10474 10474 10475 10475 10476 10477 10478 10479 10480 10481 10482 10483 10485 10486 10488 10490 10491 10493 10494 10496 10498
10583 10582 10582 10581 10580 10579 10578 10575 10574 10575 10574 10573 10570 10568 10566 10563 10560 10558 10556 10553 10551 10550 10547 10545 10543 10542 10540 10538 10536 10534 10532 10529 10526 10524 10521 10518 10515 10512 10509 10506 10503 10500 10497 10494 10491 10488 10485 10482 10479 10476 10474 10472 10470 10469 10468 10467 10466 10465 10463 10462 10462 10461 10461 10461 10461 10461 10462 10463 10463 10464 10465 10466 10467 10468 10470 10471 10472 10473 10475 10477 10478 10480 10481 10483 10485
10577 10576 10575 10574 10574 10573 10571 10570 10570 10569 10567 10565 10563 10561 10559 10556 10554 10551 10549 10547 10545 10543 10541 10539 10537 10536 10534 10532 10530 10527 10525 10522 10520 10517 10514 10511 10508 10505 10501 10498 10495 10492 10489 10486 10483 10480 10477 10474 10471 10468 10465 10462 10460 10458 10457 10455 10454 10453 10452 10451 10450 10449 10448 10448 10448 10448 10449 10450 10450 10451 10452 10452 10453 10455 10456 10457 10459 10460 10462 10463 10465 10467 10468 10470 10472
10570 10569 10568 10568 10568 10567 10566 10565 10564 10562 10561 10559 10557 10555 10552 10550 10547 10545 10543 10541 10539 10537 10535 10533 10531 10530 10528 10525 10523 10521 10518 10516 10513 10510 10507 10504 10500 10497 10494 10490 10487 10484 10480 10477 10474 10471 10468 10465 10462 10459 10456 10453 10450 10448 10446 10444 10442 10441 10440 10438 10437 10437 10436 10436 10435 10435 10435 10436 10437 10437 10438 10439 10440 10440 10442 10443 10445 10446 10448 10450 10452 10453 10455 10456 10458
10563 10562 10562 10562 10562 10561 10560 10559 10557 10556 10554 10552 10550 10548 10545 10543 10540 10538 10536 10535 10532 10530 10529 10527 10525 10523 10521 10519 10517 10514 10512 10509 10506 10503 10499 10496 10493 10490 10487 10483 10480 10476 10472 10469 10466 10462 10459 10456 10453 10450 10447 10444 10441 10438 10436 10434 10432 10430 10428 10427 10426 10425 10424 10423 10423 10422 10422 10423 10423 10423 10424 10424 10425 10426 10427 10429 10430 10432 10434 10436 10437 10439 10441 10443 10445
10557 10556 10555 10554 10554 10554 10553 10552 10551 10549 10547 10545 10543 10541 10538 10536 10534 10532 10530 10528 10526 10524 10523 10521 10519 10517 10515 10513 10510 10508 10505 10502 10499 10495 10492 10489 10485 10482 10479 10476 10472 10468 10464 10461 10457 10454 10451 10448 10445 10442 10439 10435 10432 10429 10426 10424 10422 10420 10418 10416 10415 10414 10413 10412 10411 10411 10410 10410 10410 10410 10410 10410 10411 10411 10412 10414 10415 10417 10419 10421 10422 10424 10426 10428 10430
10551 10550 10548 10548 10548 10549 10548 10546 10544 10542 10541 10539 10537 10534 10532 10530 10528 10525 10524 10522 10520 10518 10517 10515 10513 10511 10509 10506 10503 10501 10498 10495 10492 10488 10485 10482 10478 10475 10471 10468 10464 10460 10456 10452 10449 10446 10443 10439 10436 10433 10430 10426 10423 10420 10417 10415 10413 10411 10409 10407 10405 10404 10403 10402 10401 10400 10399 10399 10399 10398 10398 10397 10397 10398 10398 10399 10400 10401 10403 10405 10407 10409 10411 10414 10416
10545 10544 10542 10542 10543 10543 10541 10540 10538 10537 10535 10533 10531 10529 10526 10524 10521 10519 10518 10516 10514 10512 10511 10509 10507 10505 10502 10500 10497 10494 10491 10488 10485 10481 10478 10475 10471 10468 10464 10460 10456 10452 10448 10444 10440 10437 10434 10430 10427 10424 10421 10418 10415 10412 10409 10407 10404 10403 10401 10399 10397 10396 10394 10393 10392 10391 10390 10389 10388 10388 10387 10386 10385 10385 10385 10386 10387 10387 10388 10390 10391 10393 10395 10398 10401
10539 10537 10536 10535 10536 10536 10534 10533 10532 10530 10529 10527 10525 10523 10520 10518 10515 10513 10512 10510 10508 10506 10505 10503 10501 10498 10496 10493 10490 10487 10484 10481 10478 10474 10471 10468 10464 10460 10457 10453 10449 10445 10440 10436 10432 10429 10425 10422 10419 10415 10413 10410 10407 10404 10402 10399 10397 10395 10393 10391 10390 10388 10386 10385 10383 10382 10380 10379 10379 10378 10377 10376 10375 10374 10373 10373 10374 10375 10375 10376 10377 10378 10380 10382 10384
10533 10531 10530 10529 10529 10529 10528 10526 10525 10524 10522 10521 10519 10516 10514 10511 10509 10507 10505 10504 10502 10501 10499 10497 10494 10492 10489 10486 10483 10480 10477 10474 10471 10467 10464 10461 10457 10454 10450 10446 10442 10438 10434 10429 10425 10421 10418 10414 10411 10408 10405 10402 10400 10397 10395 10392 10390 10388 10386 10384 10382 10381 10379 10377 10376 10374 10372 10371 10370 10368 10368 10367 10366 10364 10363 10362 10362 10363 10363 10364 10364 10365 10366 10367 10369
10527 10526 10525 10523 10522 10522 10522 10520 10518 10517 10515 10514 10512 10509 10507 10505 10503 10501 10499 10498 10497 10495 10493 10491 10488 10486 10483 10480 10477 10474 10471 10467 10464 10461 10457 10454 10450 10447 10443 10439 10435 10431 10427 10422 10418 10414 10411 10408 10404 10401 10399 10396 10393 10391 10389 10386 10384 10382 10380 10378 10376 10374 10373 10371 10369 10367 10365 10363 10362 10360 10359 10358 10357 10356 10354 10353 10352 10352 10352 10352 10352 10353 10354 10355 10356
10521 10520 10519 10517 10515 10514 10513 10512 10511 10510 10508 10507 10505 10503 10501 10499 10497 10495 10494 10492 10491 10489 10487 10485 10482 10479 10476 10473 10470 10467 10464 10460 10457 10454 10450 10447 10443 10440 10436 10432 10428 10424 10419 10415 10411 10407 10404 10401 10398 10395 10392 10389 10387 10385 10383 10381 10379 10377 10375 10373 10371 10369 10367 10365 10363 10360 10358 10356 10354 10353 10351 10349 10348 10347 10346 10344 10343 10342 10342 10341 10341 10341 10342 10343 10343
10514 10513 10512 10511 10509 10508 10507 10506 10504 10503 10502 10501 10499 10498 10495 10493 10491 10490 10488 10486 10485 10483 10481 10478 10476 10473 10470 10467 10464 10460 10457 10453 10450 10446 10443 10439 10436 10432 10428 10424 10420 10416 10412 10407 10404 10400 10397 10394 10391 10388 10386 10383 10381 10379 10377 10375 10373 10371 10369 10367 10365 10363 10361 10359 10356 10354 10351 10349 10347 10345 10343 10342 10340 10339 10337 10336 10335 10333 10332 10331 10331 10331 10331 10331 10332
10508 10506 10505 10504 10503 10502 10501 10500 10499 10498 10497 10495 10494 10492 10490 10488 10486 10484 10483 10481 10479 10477 10475 10472 10469 10467 10464 10460 10457 10454 10450 10446 10442 10439 10435 10432 10428 10424 10420 10417 10413 10409 10404 10400 10396 10393 10390 10387 10384 10381 10379 10377 10375 10373 10372 10370 10368 10366 10364 10362 10359 10357 10355 10353 10350 10348 10345 10343 10341 10338 10336 10334 10332 10331 10329 10328 10327 10325 10324 10322 10321 10321 10321 10321 10321
10501 10500 10499 10498 10497 10496 10495 10494 10493 10492 10491 10489 10488 10486 10484 10483 10481 10479 10477 10475 10473 10471 10469 10466 10463 10460 10457 10454 10450 10447 10443 10439 10436 10432 10428 10425 10421 10417 10413 10409 10405 10401 10397 10393 10389 10386 10383 10380 10377 10375 10373 10371 10369 10368 10366 10364 10362 10360 10358 10356 10354 10352 10350 10347 10344 10342 10339 10336 10334 10332 10330 10327 10325 10323 10321 10320 10318 10317 10315 10314 10312 10311 10311 10311 10311
10494 10493 10492 10491 10490 10490 10489 10488 10488 10486 10485 10484 10482 10480 10479 10477 10476 10474 10472 10469 10467 10465 10463 10460 10457 10454 10451 10447 10444 10440 10436 10433 10429 10425 10422 10418 10414 10410 10406 10402 10398 10394 10390 10386 10382 10379 10376 10373 10371 10369 10367 10365 10364 10362 10360 10358 10356 10354 10352 10350 10348 10346 10344 10342 10339 10336 10333 10331 10328 10326 10324 10322 10319 10316 10314 10312 10310 10309 10307 10306 10304 10303 10302 10301 10301
10487 10486 10485 10485 10484 10484 10483 10482 10481 10480 10479 10478 10476 10475 10473 10472 10470 10468 10466 10464 10462 10459 10457 10454 10451 10448 10445 10441 10437 10433 10429 10426 10423 10419 10415 10412 10408 10404 10400 10395 10391 10387 10383 10379 10376 10373 10370 10367 10365 10363 10362 10360 10358 10356 10354 10353 10351 10349 10347 10345 10343 10341 10339 10337 10334 10331 10328 10326 10323 10320 10318 10316 10313 10310 10308 10305 10303 10301 10299 10298 10296 10294 10293 10293 10292
10481 10480 10479 10478 10478 10477 10477 10476 10475 10474 10473 10472 10470 10469 10468 10466 10464 10462 10460 10458 10456 10453 10451 10448 10445 10442 10438 10434 10430 10426 10423 10419 10416 10413 10409 10405 10401 10397 10393 10389 10385 10381 10377 10373 10370 10367 10364 10362 10360 10358 10356 10354 10353 10351 10349 10347 10345 10344 10342 10340 10338 10336 10334 10331 10329 10326 10323 10320 10318 10315 10312 10310 10307 10304 10302 10299 10297 10295 10292 10290 10288 10286 10285 10284 10283
10474 10474 10473 10472 10471 10471 10470 10469 10469 10468 10467 10466 10465 10463 10462 10460 10459 10456 10455 10452 10450 10447 10445 10442 10439 10435 10431 10427 10424 10420 10417 10413 10409 10406 10402 10399 10395 10391 10387 10382 10378 10374 10371 10367 10364 10362 10359 10357 10355 10353 10351 10349 10347 10345 10343 10342 10340 10338 10336 10335 10333 10331 10329 10326 10323 10321 10318 10315 10312 10310 10307 10304 10302 10299 10296 10293 10291 10288 10286 10284 10282 10279 10277 10276 10275
10468 10467 10466 10466 10465 10464 10464 10463 10462 10462 10461 10460 10459 10457 10456 10454 10452 10451 10449 10446 10444 10441 10438 10435 10432 10429 10425 10421 10418 10414 10411 10407 10403 10399 10396 10392 10388 10385 10381 10376 10372 10369 10365 10362 10359 10357 10355 10352 10350 10348 10346 10344 10342 10340 10338 10337 10335 10333 10331 10329 10327 10325 10323 10320 10318 10315 10312 10310 10307 10304 10302 10299 10296 10294 10291 10288 10285 10283 10280 10278 10276 10273 10271 10269 10267
10462 10461 10460 10460 10459 10458 10458 10457 10457 10456 10455 10454 10452 10451 10450 10448 10446 10444 10442 10440 10437 10434 10431 10428 10425 10422 10418 10415 10412 10408 10405 10401 10397 10393 10389 10385 10382 10378 10374 10370 10367 10363 10360 10357 10355 10352 10350 10348 10346 10344 10342 10340 10338 10336 10334 10332 10330 10328 10327 10325 10322 10320 10318 10315 10313 10310 10307 10305 10302 10299 10296 10294 10291 10289 10286 10283 10281 10278 10275 10272 10270 10267 10265 10263 10261
10456 10455 10455 10454 10453 10453 10452 10452 10451 10450 10449 10448 10446 10445 10443 10441 10440 10437 10435 10432 10430 10427 10424 10421 10418 10415 10412 10409 10406 10402 10399 10395 10391 10387 10383 10379 10375 10371 10368 10365 10361 10358 10355 10352 10350 10348 10346 10344 10342 10339 10337 10335 10333 10331 10329 10327 10326 10324 10322 10320 10318 10315 10313 10311 10308 10305 10303 10300 10297 10294 10291 10288 10285 10283 10280 10278 10276 10273 10271 10268 10265 10262 10260 10258 10255
10450 10450 10449 10448 10448 10447 10447 10446 10445 10444 10443 10442 10440 10439 10437 10434 10432 10430 10428 10425 10422 10419 10416 10413 10410 10408 10405 10402 10399 10396 10392 10389 10385 10381 10377 10372 10369 10365 10362 10359 10356 10353 10350 10348 10345 10343 10341 10339 10337 10335 10332 10330 10328 10326 10324 10322 10321 10319 10317 10315 10313 10310 10308 10306 10303 10300 10297 10295 10292 10289 10285 10282 10280 10277 10275 10272 10270 10268 10266 10264 10261 10258 10255 10253 10250
10444 10444 10444 10443 10443 10442 10441 10441 10440 10438 10437 10435 10434 10432 10430 10427 10425 10423 10420 10417 10414 10411 10409 10406 10403 10401 10398 10395 10392 10389 10386 10382 10378 10374 10370 10367 10363 10359 10356 10353 10351 10348 10346 10344 10341 10339 10336 10334 10332 10330 10328 10325 10323 10321 10319 10317 10316 10314 10312 10310 10307 10305 10303 10301 10298 10295 10292 10289 10287 10283 10280 10277 10275 10272 10269 10267 10265 10262 10260 10258 10256 10254 10251 10248 10245
10439 10439 10438 10438 10437 10437 10436 10435 10434 10432 10431 10429 10427 10425 10423 10420 10418 10415 10413 10410 10407 10404 10402 10399 10397 10394 10391 10388 10385 10382 10379 10375 10371 10367 10364 10360 10357 10353 10350 10348 10346 10344 10341 10339 10337 10334 10332 10329 10327 10325 10323 10321 10319 10317 10315 10313 10311 10309 10307 10305 10303 10301 10298 10296 10293 10290 10287 10284 10281 10278 10276 10273 10270 10267 10264 10262 10259 10257 10254 10252 10250 10248 10246 10243 10240
10433 10433 10432 10432 10431 10430 10430 10429 10427 10426 10425 10423 10421 10418 10416 10413 10411 10408 10406 10403 10400 10398 10395 10393 10390 10387 10384 10381 10378 10375 10371 10368 10364 10361 10357 10354 10351 10348 10345 10343 10341 10339 10336 10334 10332 10329 10327 10324 10322 10320 10318 10316 10314 10312 10310 10308 10306 10305 10303 10301 10298 10296 10294 10291 10288 10285 10282 10280 10277 10273 10271 10268 10265 10262 10260 10257 10255 10252 10249 10247 10244 10242 10240 10238 10235
10427 10427 10426 10425 10424 10424 10423 10422 10421 10420 10418 10416 10414 10412 10409 10407 10404 10402 10399 10397 10394 10391 10389 10386 10383 10380 10377 10375 10372 10368 10365 10361 10358 10354 10351 10347 10345 10342 10340 10338 10336 10333 10331 10328 10326 10324 10322 10320 10317 10315 10313 10312 10310 10308 10306 10304 10302 10300 10298 10296 10294 10292 10289 10286 10283 10280 10277 10275 10272 10268 10266 10263 10260 10257 10255 10252 10250 10247 10245 10242 10239 10236 10234 10231 10229
10421 10420 10419 10418 10417 10417 10416 10415 10414 10413 10411 10409 10407 10405 10402 10400 10398 10395 10393 10390 10387 10385 10382 10379 10376 10374 10371 10368 10365 10361 10358 10354 10351 10347 10344 10341 10339 10337 10334 10332 10330 10328 10326 10323 10321 10319 10316 10314 10313 10311 10309 10307 10305 10303 10301 10299 10298 10296 10293 10291 10289 10287 10284 10281 10278 10275 10272 10269 10266 10263 10260 10258 10255 10252 10250 10247 10245 10242 10239 10237 10234 10231 10228 10225 10222
10415 10414 10413 10412 10411 10410 10409 10408 10407 10406 10404 10402 10400 10398 10396 10393 10391 10389 10386 10383 10381 10378 10375 10372 10370 10367 10365 10361 10358 10355 10351 10348 10344 10341 10338 10336 10333 10331 10329 10327 10324 10322 10320 10318 10316 10314 10312 10310 10308 10306 10304 10302 10300 10298 10296 10295 10293 10291 10288 10286 10284 10281 10279 10276 10273 10270 10267 10264 10261 10258 10255 10252 10250 10247 10244 10241 10239 10236 10233 10231 10228 10225 10222 10219 10216
10408 10407 10406 10405 10404 10403 10402 10401 10400 10399 10397 10395 10393 10391 10389 10387 10384 10382 10379 10377 10374 10371 10368 10366 10364 10361 10358 10355 10351 10348 10344 10341 10338 10336 10333 10331 10328 10326 10324 10321 10319 10317 10314 10312 10310 10308 10307 10305 10303 10301 10299 10297 10296 10294 10292 10290 10288 10286 10283 10281 10279 10276 10273 10271 10268 10264 10261 10259 10256 10253 10250 10247 10244 10241 10239 10236 10233 10230 10227 10224 10221 10219 10216 10213 10210
10401 10400 10400 10398 10397 10396 10395 10394 10393 10391 10390 10388 10386 10384 10382 10380 10378 10375 10373 10370 10368 10365 10362 10359 10357 10354 10352 10349 10345 10342 10338 10335 10332 10330 10328 10325 10323 10321 10319 10316 10314 10312 10309 10307 10305 10303 10302 10300 10298 10296 10295 10293 10291 10289 10287 10285 10283 10281 10279 10276 10274 10271 10268 10266 10262 10259 10256 10253 10251 10248 10245 10242 10239 10236 10233 10230 10227 10224 10222 10219 10216 10213 10210 10207 10204
10394 10393 10392 10391 10390 10389 10388 10387 10385 10384 10382 10381 10379 10377 10375 10373 10371 10369 10366 10363 10361 10358 10356 10353 10351 10348 10345 10342 10339 10335 10333 10330 10327 10325 10322 10320 10318 10316 10313 10311 10309 10307 10305 10303 10301 10299 10297 10295 10293 10292 10290 10289 10287 10285 10283 10280 10278 10276 10273 10271 10268 10266 10263 10260 10257 10254 10251 10248 10245 10243 10240 10237 10234 10230 10227 10224 10221 10218 10215 10212 10209 10206 10204 10201 10198
10386 10386 10385 10384 10383 10382 10381 10380 10378 10377 10375 10373 10371 10369 10368 10366 10364 10361 10359 10356 10354 10352 10349 10347 10344 10341 10338 10335 10332 10329 10327 10324 10322 10319 10317 10314 10312 10310 10308 10306 10304 10302 10300 10299 10297 10295 10293 10291 10289 10287 10286 10284 10282 10280 10278 10275 10272 10270 10268 10265 10263 10260 10257 10254 10251 10248 10245 10242 10239 10237 10234 10231 10229 10226 10222 10219 10215 10212 10209 10206 10203 10200 10197 10194 10191